NapervilleWeather.com

Find the Weather for any City, State  
or Zipcode, or Country:

Naperville, IL Weather
Local Radar

Local Radar

Graphs, Details
Graphs and Gauges
Detailed Weather
Detailed Reports
Ajax Version (old)
Davis Summary
Davis Current Weather Graphs
Davis 24 Hour Weather History
Cumulus

CW7164 Data

Weather Underground
www.awekas.at
Automatic Weather Map System
Latest Naperville, Illinois, weather
Weather For You
Maps
Temperature
Heat Index
Windchill
Humidity
Radar
Dew Point
Wind
Visibility
Visible Satellite
Satellite
Fronts
Snow Depth
Jet Stream
Flight Rules
Forecast Maps
Temperature Forecast
Maximum Temperature Forecast
Minimum Temperature Forecast
Dewpoint Forecast
Prevalent Weather
12Hr Probability of Precip.
Sky Cover
Health Maps
UV Forecast
Air Quality
Peak Air Quality Index
Weather Station
Davis Instruments Vantage Pro2
Current Conditions [Select Refresh to Update]

Updated: 8:36am on 4/24/14

(location)
Currently:
49.5°F

Clear
Scattered Clouds

High: 49.5 °F< 
(8:35am
Low: 39.6 °F 
(1:23am)
Wind: E 5 mph
Light Breeze
Gust: 8 mph
Today's High Wind: 8 mph (8:34am)
Humidity: 59%
Pressure: 30.00 in  (Falling
Pressure Rate: -0.025 in/hr
Dew Point: 35.8°F
Wind Chill: 47.6 °F
Heat Index (feels like): 51.2 °F
Comfort Level: Cool
Temperature Rate:  3.17°F/hr
 
5 Day Forecast
 
Thu Fri Sat Sun Mon
Clear Clear Clear Clear Clear
Chance T-storms Partly Cloudy Partly Cloudy Chance Rain Chance T-storms
64 66 54 63 68
43 39 39 43 39

Records and Normals
 
Temperature Forecast Normal Record
High 64 64 75
(1998)
Low 43 40 28
(1999)
 
 
Weather Advisories
No Warnings
Full Advisory Text...
Weather Map

Web Cam

Almanac
 
Sunrise:  
5:57am
Moonrise: 
3:14am

Moon Phase:
27%

Sunset: 
7:42pm
Moonset:  
2:54pm
 Star Chart...
Rainfall Totals
Hourly Rain 0.00 in
Daily Rain: 0.01 in
Monthly Rain: 2.08 in
Yearly Rain: 6.93 in
Normal Rain, month to date: 1.12 in
Normal Rain, year to date: 2.79 in
Local Weather Exchange Network
Station ID City 
(Click for Map Location)
Neighborhood 
(Click for History)
Last Update (Date & Time) Temperature
 ()
Dew
Point ()
Humidity 
(%)
Wind 
(mph)
from the Wind Gust 
(mph) 
Pressure(in) Hourly
Rain(in)
KILNAPER15 Naperville Indian Hill Near Jefferson JHS 04/24 08:29:53 49.3 36.0 59 3 ESE 9 29.98 0.00
KILNAPER21 Naperville Saybrook 04/24 05:30:16 41.5 34.0 76 3 ENE 10 30.06 0.00
KILNAPER24 Naperville Brush Hill 04/24 08:28:06 49.7 37.0 63 4 ESE 7 29.92 0.00
KILWARRE4 Warrenville Cerny Park 04/24 08:25:08 50.0 38.0 63 5 SE 6 29.94 0.00
KILNAPER19 Naperville Brookdale Lakes 04/24 08:29:58 49.5 39.0 67 8 ESE 11 29.93 0.00
KILNAPER7 Naperville NapervilleWeather.com Near Ogden and Naper Blvd 04/24 08:29:55 49.2 36.0 60 2 East 5 30.00 0.00
KILWARRE2 Warrenville Warrenville Neighborhood Weather 04/24 08:29:54 49.5 38.0 64 7 ESE 16 29.96 0.00
KILNAPER23 Naperville Naper Blvd at BNSF RR 04/24 08:29:56 49.0 38.0 65 3 ESE 8 29.99 0.00
KILNAPER9 Naperville 75th St. / Modaff Area 04/24 08:29:56 49.9 39.0 65 4 SE 5 29.97 0.00
KILWHEAT8 Wheaton Wheaton Sanitary District 04/24 08:18:57 49.0 39.0 68 0 SSE 10 30.00 0.00
KILLOMBA6 Wheaton Danada West 04/24 08:29:25 48.7 37.0 63 5 SSE 9 29.92 0.00
KILLISLE3 Lisle Main and Short Lisle 04/24 07:31:26 46.2 36.0 67 0 ESE 0 29.82 0.00
KILNAPER16 Naperville SE Naperville / NE Clow Arpt 04/24 08:27:00 49.5 37.0 62 10 SE 20 29.99 0.00
KILNAPER22 Naperville Willow Ridge 04/24 08:26:00 49.5 40.0 69 0 East 0 29.79 0.00
KILWHEAT5 Wheaton N9ABF - West Wheaton 04/24 08:20:22 48.0 38.0 69 5 ESE 0 29.95 0.00
KILWINFI2 Winfield Winfield Heights (SarahNet) 04/24 08:21:59 47.8 38.0 68 0 SSE 5 29.99 0.00
MUP431 West Chicago MesoWest WINFL1 IL US UPR 04/24 07:35:00 44.0 0.0 0 0 North 0 0.00 0.00
KILWHEAT7 Wheaton South Wheaton 04/24 08:29:47 48.1 38.0 69 3 East 9 29.93 0.00
KILWOODR4 Woodridge Woodridge Neighborhood Weather 04/24 08:16:47 48.3 37.0 64 2 SE 13 29.99 0.00
KILWINFI3 Winfield Fredericksburg Farm 04/24 08:29:57 48.4 37.0 65 3 ENE 9 29.90 0.00
KILWHEAT10 Wheaton Wheaton College 04/24 08:25:17 47.8 36.0 63 7 ESE 16 29.98 0.00
KILWOODR2 Woodridge Woodridge 04/24 08:29:57 49.2 38.0 65 13 SSE 13 29.87 0.00
KILWOODR1 Woodridge 75th Street/ Janes Ave 04/24 08:29:57 50.0 40.0 67 2 West 6 29.19 0.00
KILBATAV5 Batavia Fermi National Accelerator Laboratory 04/24 08:17:06 48.7 38.0 67 3 ESE 9 29.94 0.00
KILAUROR20 Aurora Columbia Station 04/24 08:29:58 50.7 44.0 79 4 North 4 30.10 0.00
KILGLENE1 Glen Ellyn Butterfield West 04/24 08:29:40 48.8 37.0 63 7 SSE 13 30.01 0.00
KILBOLIN15 Bolingbrook Winding Meadows 04/24 08:29:56 49.9 35.0 57 6 SSE 7 30.01 0.00
KILDOWNE3 Downers Grove Maple Woods West 04/24 08:29:57 48.6 42.0 78 4 SE 9 30.03 0.00
KILBOLIN12 Bolingbrook UnderTheThunder HQ 04/24 08:29:20 49.5 38.0 66 7 SSE 14 29.98 0.00
KILAUROR22 Aurora Lakewood Valley 04/24 08:20:48 49.1 39.0 68 4 SSE 0 29.75 0.00
KILCHICA63 Glen Ellyn Glen Ellyn Neighborhood Weather 04/24 08:27:59 49.8 0.0 0 0 North 0 0.00 0.00
KILAUROR23 Aurora Summerlin 04/24 08:26:45 49.3 38.0 66 5 SE 0 29.80 0.00
KILGLENE7 Glen Ellyn Glen Ellyn Civic Center 04/24 08:28:20 49.0 38.0 65 12 SE 15 30.04 0.00
KILBOLIN8 Bolingbrook Bolingbrook Neighborhood Weather 04/24 08:29:57 49.1 39.0 68 0 SE 2 29.99 0.00
KILBOLIN16 Bolingbrook Huntington Estates 04/24 08:29:57 49.3 38.0 64 8 SSE 15 29.97 0.00
KILWESTC8 West Chicago Ingalton Hills Estates 04/24 08:29:57 48.0 45.0 90 6 ESE 6 30.06 0.00
KILDARIE3 Darien Darien, Near 75th St and Lemont Rd (60561) 04/24 08:29:54 49.2 27.0 43 3 SE 5 29.85 0.00
KDPA Chicago DuPage Official Station 04/24 07:52:00 47.0 35.0 63 12 ESE --- 29.99 ---
KLOT Romeoville Official Station 04/24 08:15:00 49.0 37.0 63 10 SE --- 29.98 ---
KARR Aurora Official Station 04/24 07:52:00 48.0 35.0 61 18 ESE --- 29.98 ---
Full Advisory Text
No Warnings

Ambient Weather and Weather Underground
 Never base important decisions on this or any weather information obtained from the Internet
Updated Automatically by Ambient Weather's Virtual Weather Station  V14.01